Flag for Canada Weather past 2 weeks in Vancouver, British Columbia, Canada

Now
59 °F

Passing clouds.


Feels Like: 59 °F
Forecast: 54 / 74 °F
Wind: 5 mph from East

Location: Vancouver International Air-Port

Current Time: Jul 26, 2014 at 4:12:26 AM

Latest Report: Jul 26, 2014 at 3:00 AM


Visibility: 20 mi

Pressure: 30.11 "Hg

Humidity: 88%

Dew point: 55 °F

Location of VancouverLocation

Historic Weather in Vancouver — Graph

°F

Vancouver temperature yesterday

Maximum temperature yesterday: 68 °F (at 12:00 PM)
Minimum temperature yesterday: 54 °F (at 6:00 AM)
Average temperature yesterday: 62 °F

Past Weeks' High & Low Weather Summary

 TemperatureHumidityPressure
High81 °F (Jul 14, 7:00 PM)100% (Jul 24, 3:00 AM)30.18 "Hg (Jul 24, 3:00 AM)
Low54 °F (Jul 25, 6:00 AM)45% (Jul 14, 7:00 PM)29.88 "Hg (Jul 19, 8:00 PM)
Average66 °F73%30.02 "Hg
* Reported Jul 11 3:00 AM — Jul 26 3:00 AM, Vancouver, Weather by CustomWeather, © 2014

Note: Actual official high and low records may vary slightly from our data, if they occured in-between our weather recording intervals... More about our weather records

Advertising

Vancouver weather history for previous 24 hours

 ConditionsComfort  
Time TempWeatherWind HumidityBarometerVisibility
3:00 AM
Jul 26
59 °FPassing clouds.5 mph88%30.11 "Hg20 mi
2:00 AM59 °FPassing clouds.6 mph82%30.11 "Hg20 mi
1:00 AM61 °FClear.No wind88%30.10 "Hg20 mi
12:00 AM61 °FClear.No wind77%30.10 "Hg20 mi
11:00 PM
Jul 25
63 °FClear.2 mph73%30.09 "Hg20 mi
10:00 PM63 °FSunny.5 mph73%30.09 "Hg20 mi
9:00 PM64 °FSunny.5 mph64%30.08 "Hg20 mi
8:00 PM66 °FSunny.6 mph64%30.08 "Hg20 mi
7:00 PM68 °FSunny.6 mph64%30.09 "Hg20 mi
6:00 PM68 °FSunny.6 mph64%30.11 "Hg20 mi
5:00 PM68 °FPassing clouds.7 mph60%30.12 "Hg20 mi
4:00 PM68 °FPassing clouds.9 mph60%30.13 "Hg20 mi
3:00 PM68 °FScattered clouds.9 mph64%30.14 "Hg20 mi
2:00 PM66 °FPartly sunny.10 mph68%30.14 "Hg20 mi
1:00 PM68 °FPartly sunny.10 mph69%30.15 "Hg20 mi
12:00 PM68 °FPartly sunny.7 mph60%30.16 "Hg20 mi
11:00 AM63 °FPartly sunny.3 mph73%30.16 "Hg20 mi
10:00 AM61 °FOvercast.8 mph72%30.17 "Hg15 mi
9:00 AM59 °FOvercast.8 mph82%30.17 "Hg15 mi
8:00 AM57 °FOvercast.12 mph82%30.17 "Hg15 mi
7:00 AM55 °FPartly sunny.9 mph88%30.16 "Hg15 mi
6:00 AM54 °FPassing clouds.10 mph88%30.16 "Hg20 mi
5:00 AM55 °FPassing clouds.8 mph88%30.16 "Hg15 mi
4:00 AM55 °FMostly cloudy.8 mph88%30.17 "Hg15 mi
Weather by CustomWeather, © 2014

See weather overviewHow to use our weather pages